Flag for United Kingdom Weather past 2 weeks in Poole, England, United Kingdom

Now
52 °F

Light rain. Passing clouds.


Feels Like: 45 °F
Forecast: 41 / 51 °F
Wind: 25 mph from West

Location: Bournemouth Airport

Current Time: Mar 31, 2015 at 2:20:29 AM

Latest Report: Mar 31, 2015 at 1:50 AM


Visibility: 4 mi

Pressure: 29.59 "Hg

Humidity: 94%

Dew point: 50 °F

Location of PooleLocation

Historic Weather in Poole — Graph

°F

Poole temperature yesterday

Maximum temperature yesterday: 54 °F (at 9:50 PM)
Minimum temperature yesterday: 41 °F (at 6:20 AM)
Average temperature yesterday: 49 °F

Past Weeks' High & Low Weather Summary

 TemperatureHumidityPressure
High57 °F (Mar 26, 3:20 PM)100% (Mar 16, 9:50 PM)30.54 "Hg (Mar 16, 9:50 PM)
Low28 °F (Mar 25, 2:20 AM)41% (Mar 26, 5:50 PM)29.50 "Hg (Mar 29, 12:50 PM)
Average45 °F77%30.08 "Hg
* Reported Mar 16 4:50 AM — Mar 30 11:50 PM, Poole, Weather by CustomWeather, © 2015

Note: Actual official high and low records may vary slightly from our data, if they occured in-between our weather recording intervals... More about our weather records

Advertising

Poole weather history for previous 24 hours

 ConditionsComfort  
Time TempWeatherWind HumidityBarometerVisibility
11:50 PM
Mon, Mar 30
52 °FPassing clouds.21 mph88%29.62 "HgN/A
11:20 PM54 °FOvercast.15 mph82%29.65 "HgN/A
10:50 PM54 °FOvercast.17 mph88%29.65 "HgN/A
10:20 PM54 °FOvercast.21 mph88%29.65 "HgN/A
9:50 PM54 °FOvercast.21 mph88%29.68 "HgN/A
9:20 PM52 °FLow clouds.18 mph94%29.68 "HgN/A
8:50 PM52 °FLow clouds.18 mph94%29.68 "Hg6 mi
8:20 PM52 °FLow clouds.21 mph94%29.68 "Hg5 mi
7:50 PM50 °FDrizzle. Low clouds.21 mph100%29.71 "Hg5 mi
7:20 PM50 °FDrizzle. Fog.17 mph94%29.74 "Hg3 mi
6:50 PM50 °FDrizzle. Fog.16 mph94%29.77 "Hg1 mi
6:20 PM50 °FPartly sunny.15 mph88%29.80 "HgN/A
5:20 PM50 °FPartly sunny.18 mph82%29.83 "HgN/A
4:50 PM50 °FPartly sunny.18 mph82%29.83 "HgN/A
4:20 PM50 °FBroken clouds.14 mph76%29.86 "HgN/A
3:50 PM50 °FBroken clouds.16 mph71%29.89 "HgN/A
3:20 PM50 °FScattered clouds.16 mph71%29.92 "HgN/A
2:50 PM52 °FScattered clouds.16 mph62%29.89 "HgN/A
2:20 PM52 °FScattered clouds.16 mph58%29.92 "HgN/A
1:50 PM52 °FScattered clouds.15 mph54%29.92 "HgN/A
1:20 PM52 °FScattered clouds.14 mph54%29.92 "HgN/A
12:50 PM50 °FPassing clouds.14 mph54%29.92 "HgN/A
12:20 PM50 °FPassing clouds.12 mph50%29.92 "HgN/A
11:50 AM50 °FPassing clouds.16 mph47%29.95 "HgN/A
11:20 AM50 °FScattered clouds.16 mph54%29.92 "HgN/A
10:50 AM52 °FScattered clouds.18 mph50%29.92 "HgN/A
10:20 AM50 °FPassing clouds.14 mph58%29.92 "HgN/A
9:50 AM50 °FPassing clouds.15 mph58%29.89 "HgN/A
9:20 AM48 °FPassing clouds.16 mph66%29.89 "HgN/A
8:50 AM46 °FScattered clouds.8 mph76%29.89 "HgN/A
8:20 AM45 °FScattered clouds.9 mph76%29.86 "HgN/A
7:50 AM41 °FPassing clouds.9 mph87%29.86 "HgN/A
7:20 AM41 °FPassing clouds.9 mph81%29.83 "HgN/A
6:50 AM41 °FClear.8 mph81%29.80 "Hg10 mi
6:20 AM41 °FClear.7 mph81%29.80 "Hg10 mi
5:50 AM43 °FClear.10 mph81%29.77 "Hg10 mi
5:20 AM43 °FClear.13 mph81%29.77 "Hg10 mi
Weather by CustomWeather, © 2015

See weather overviewHow to use our weather pages